Preview of NWS' New Version of Forecast
This preview is not operational and should not be used for support decisions.

Regional Weather Roundup (RWR)

Issued by National Weather Service (NWS)

                            
000
ASCA42 TJSJ 201910
RWRPR 
PUERTO RICO/U.S. VIRGIN ISLANDS HOURLY WEATHER ROUNDUP
NATIONAL WEATHER SERVICE SAN JUAN PR
300 PM AST THU JUN 20 2019

PRZ001>002-007>008-010-202000-
PUERTO RICO
  
CITY           SKY/WX    TMP DP  RH WIND       PRES   REMARKS
SAN JUAN LMM   MOSUNNY   90  77  66 E17       30.07F HX 102           
AGUADILLA      PTSUNNY   86  81  84 E15       30.09F HX 102           
$$

VIZ001>002-202000-
U.S. VIRGIN ISLANDS
  
CITY           SKY/WX    TMP DP  RH WIND       PRES   REMARKS
CHARLOTTE AMA  MOSUNNY   88  75  66 E16G26    30.09F HX  97           
CHRISTIANSTED  MOSUNNY   88  75  66 E20       30.09F HX  97           
$$

HOURLY WEATHER ROUNDUP FOR THE NEWS MEDIA
  
CITY           SKY/WX    TMP DP  RH WIND       PRES   REMARKS
ORLANDO        PTSUNNY   91  72  53 W13       30.00S HX  98           
NEW YORK       CLOUDY    74  73  97 S9        29.53  FOG              
NEWARK         HVY RAIN  75  72  90 CALM      29.51F FOG              
CHICAGO        CLOUDY    65  58  78 N10       29.76R                  
HARTFORD       LGT RAIN  67  64  90 S9        29.59F                  
BOSTON         FOG       67  64  90 SE7       29.57  VSB 1/4          
DALLAS         SUNNY     94  75  54 S12G23    29.75F HX 105           
PHILADELPHIA   TSTM      84  72  67 SW16      29.51                   
LOS ANGELES    CLOUDY    66  58  75 W9        29.98R                  
WASHINGTON DC  PTSUNNY   88  66  48 SW10G25   29.55F HX  90